When you browse on this site, cookies collect data to enhance your experience and personalize the content and advertising you see.
Visit our Privacy Policy to learn more. By continuing to use the site, you agree to this use of cookies and data.
  • In United Kingdom
  • List of Countries
  • For 7 days
  • Water Temperature
  • Satellite Maps
  • Weather Map
  • Weather Widgets
  • user-avatar
    Login

    Hourly Weather San Pedro Mixtepec

    Today, 21 March, Thursday

    Time Temperature Precipitation Wind Pressure Humidity
    00:00 +14°C° 0 mm 1 mps 602 mmHg 89%
    01:00 +14°C° 0.1 mm 1 mps 602 mmHg 90%
    02:00 +14°C° 0.1 mm 1 mps 602 mmHg 90%
    03:00 +13°C° 0.1 mm 1 mps 601 mmHg 91%
    04:00 +13°C° 0.1 mm 1 mps 601 mmHg 91%
    05:00 +13°C° 0.1 mm 1 mps 601 mmHg 91%
    06:00 +13°C° 0 mm 1 mps 601 mmHg 91%
    07:00 +14°C° 0.1 mm 1 mps 602 mmHg 85%
    08:00 +15°C° 0.1 mm 2 mps 603 mmHg 79%
    09:00 +17°C° 0.1 mm 2 mps 604 mmHg 72%
    10:00 +18°C° 0.2 mm 2 mps 604 mmHg 67%
    11:00 +19°C° 0.2 mm 2 mps 605 mmHg 61%
    12:00 +21°C° 0.2 mm 2 mps 605 mmHg 55%
    13:00 +21°C° 0.2 mm 2 mps 605 mmHg 54%
    14:00 +21°C° 0.2 mm 2 mps 604 mmHg 53%
    15:00 +21°C° 0.2 mm 3 mps 604 mmHg 52%
    16:00 +21°C° 0.2 mm 3 mps 603 mmHg 55%
    17:00 +20°C° 0.2 mm 2 mps 603 mmHg 58%
    18:00 +19°C° 0.2 mm 2 mps 603 mmHg 61%
    19:00 +17°C° 0.1 mm 2 mps 602 mmHg 67%
    20:00 +16°C° 0.1 mm 2 mps 602 mmHg 73%
    21:00 +15°C° 0.1 mm 2 mps 602 mmHg 79%
    22:00 +14°C° 0 mm 2 mps 602 mmHg 82%
    23:00 +13°C° 0 mm 1 mps 602 mmHg 84%

    Tomorrow, 22 March, Friday

    Time Temperature Precipitation Wind Pressure Humidity
    00:00 +13°C° 0 mm 1 mps 602 mmHg 87%
    01:00 +13°C° 0 mm 1 mps 602 mmHg 87%
    02:00 +12°C° 0 mm 1 mps 601 mmHg 87%
    03:00 +12°C° 0 mm 1 mps 601 mmHg 87%
    04:00 +12°C° 0 mm 1 mps 601 mmHg 87%
    05:00 +12°C° 0 mm 1 mps 601 mmHg 87%
    06:00 +12°C° 0 mm 1 mps 601 mmHg 88%
    07:00 +14°C° 0 mm 1 mps 602 mmHg 80%
    08:00 +16°C° 0 mm 1 mps 603 mmHg 72%
    09:00 +19°C° 0 mm 1 mps 604 mmHg 64%
    10:00 +20°C° 0.2 mm 1 mps 605 mmHg 60%
    11:00 +21°C° 0.2 mm 1 mps 605 mmHg 57%
    12:00 +23°C° 0.2 mm 1 mps 605 mmHg 53%
    13:00 +22°C° 1.1 mm 1 mps 605 mmHg 55%
    14:00 +22°C° 1.1 mm 1 mps 604 mmHg 58%
    15:00 +21°C° 1.1 mm 1 mps 603 mmHg 60%
    16:00 +21°C° 1.4 mm 1 mps 602 mmHg 63%
    17:00 +20°C° 1.4 mm 1 mps 602 mmHg 67%
    18:00 +19°C° 1.4 mm 1 mps 602 mmHg 70%
    19:00 +18°C° 0.9 mm 1 mps 602 mmHg 74%
    20:00 +16°C° 0.9 mm 1 mps 602 mmHg 78%
    21:00 +15°C° 0.9 mm 1 mps 603 mmHg 82%
    22:00 +15°C° 0.5 mm 1 mps 602 mmHg 84%
    23:00 +14°C° 0.5 mm 1 mps 602 mmHg 85%

    Day after tomorrow, 23 March, Saturday

    Time Temperature Precipitation Wind Pressure Humidity
    00:00 +14°C° 0.5 mm 1 mps 602 mmHg 87%
    01:00 +13°C° 0.1 mm 0 mps 602 mmHg 88%
    02:00 +13°C° 0.1 mm 0 mps 601 mmHg 88%
    03:00 +12°C° 0.1 mm 0 mps 601 mmHg 89%
    04:00 +13°C° 0 mm 1 mps 601 mmHg 89%
    05:00 +13°C° 0 mm 1 mps 601 mmHg 89%
    06:00 +13°C° 0 mm 1 mps 601 mmHg 89%
    07:00 +15°C° 0 mm 1 mps 602 mmHg 81%
    08:00 +16°C° 0 mm 0 mps 604 mmHg 73%
    09:00 +18°C° 0 mm 0 mps 605 mmHg 65%
    10:00 +20°C° 0.2 mm 0 mps 605 mmHg 59%
    11:00 +23°C° 0.2 mm 1 mps 606 mmHg 53%
    12:00 +25°C° 0.2 mm 1 mps 606 mmHg 48%
    13:00 +24°C° 0.5 mm 1 mps 605 mmHg 48%
    14:00 +24°C° 0.5 mm 1 mps 604 mmHg 49%
    15:00 +24°C° 0.5 mm 1 mps 603 mmHg 49%
    16:00 +23°C° 0.8 mm 1 mps 603 mmHg 55%
    17:00 +22°C° 0.8 mm 1 mps 603 mmHg 60%
    18:00 +21°C° 0.8 mm 1 mps 602 mmHg 65%
    19:00 +19°C° 0.5 mm 1 mps 602 mmHg 70%
    20:00 +18°C° 0.5 mm 1 mps 603 mmHg 74%
    21:00 +16°C° 0.5 mm 1 mps 603 mmHg 79%
    22:00 +16°C° 0.2 mm 1 mps 603 mmHg 80%
    23:00 +15°C° 0.2 mm 1 mps 603 mmHg 81%

    24 March, Sunday

    Time Temperature Precipitation Wind Pressure Humidity
    00:00 +15°C° 0.2 mm 1 mps 603 mmHg 82%
    01:00 +14°C° 0 mm 1 mps 602 mmHg 83%
    02:00 +14°C° 0 mm 1 mps 602 mmHg 84%
    03:00 +14°C° 0 mm 1 mps 601 mmHg 85%
    04:00 +14°C° 0 mm 1 mps 601 mmHg 85%
    05:00 +13°C° 0 mm 1 mps 601 mmHg 85%
    06:00 +13°C° 0 mm 1 mps 601 mmHg 86%
    07:00 +15°C° 0 mm 1 mps 602 mmHg 77%
    08:00 +18°C° 0 mm 1 mps 604 mmHg 68%
    09:00 +20°C° 0 mm 1 mps 605 mmHg 60%
    10:00 +22°C° 0 mm 1 mps 606 mmHg 53%
    11:00 +24°C° 0 mm 2 mps 606 mmHg 46%
    12:00 +26°C° 0 mm 2 mps 606 mmHg 39%
    13:00 +25°C° 0.2 mm 2 mps 606 mmHg 40%
    14:00 +25°C° 0.2 mm 2 mps 605 mmHg 42%
    15:00 +25°C° 0.2 mm 3 mps 604 mmHg 43%
    16:00 +24°C° 0.1 mm 3 mps 603 mmHg 46%
    17:00 +22°C° 0.1 mm 3 mps 603 mmHg 49%
    18:00 +21°C° 0.1 mm 3 mps 603 mmHg 52%
    19:00 +19°C° 0 mm 2 mps 603 mmHg 57%
    20:00 +18°C° 0 mm 2 mps 602 mmHg 62%
    21:00 +16°C° 0 mm 2 mps 602 mmHg 67%
    22:00 +15°C° 0 mm 2 mps 602 mmHg 72%
    23:00 +14°C° 0 mm 1 mps 602 mmHg 76%

    25 March, Monday

    Time Temperature Precipitation Wind Pressure Humidity
    00:00 +13°C° 0 mm 1 mps 601 mmHg 80%
    01:00 +13°C° 0 mm 1 mps 601 mmHg 79%
    02:00 +13°C° 0 mm 1 mps 600 mmHg 79%
    03:00 +12°C° 0 mm 1 mps 600 mmHg 78%
    04:00 +12°C° 0 mm 1 mps 600 mmHg 77%
    05:00 +12°C° 0 mm 1 mps 600 mmHg 76%
    06:00 +12°C° 0 mm 2 mps 600 mmHg 74%
    07:00 +14°C° 0 mm 2 mps 601 mmHg 65%
    08:00 +17°C° 0 mm 2 mps 603 mmHg 55%
    09:00 +19°C° 0 mm 2 mps 604 mmHg 46%
    10:00 +21°C° 0 mm 2 mps 605 mmHg 39%
    11:00 +24°C° 0 mm 2 mps 605 mmHg 31%
    12:00 +26°C° 0 mm 2 mps 605 mmHg 23%
    13:00 +26°C° 0 mm 3 mps 605 mmHg 23%
    14:00 +26°C° 0 mm 3 mps 604 mmHg 22%
    15:00 +27°C° 0 mm 3 mps 604 mmHg 21%
    16:00 +25°C° 0 mm 3 mps 603 mmHg 26%
    17:00 +24°C° 0 mm 3 mps 603 mmHg 31%
    18:00 +21°C° 0 mm 3 mps 602 mmHg 36%
    19:00 +19°C° 0 mm 2 mps 602 mmHg 40%
    20:00 +17°C° 0 mm 2 mps 602 mmHg 44%
    21:00 +15°C° 0 mm 2 mps 602 mmHg 48%
    22:00 +14°C° 0 mm 2 mps 601 mmHg 51%
    23:00 +13°C° 0 mm 2 mps 601 mmHg 53%

    26 March, Tuesday

    Time Temperature Precipitation Wind Pressure Humidity
    00:00 +12°C° 0 mm 2 mps 601 mmHg 56%
    01:00 +12°C° 0 mm 2 mps 600 mmHg 57%
    02:00 +12°C° 0 mm 2 mps 600 mmHg 59%
    03:00 +10°C° 0 mm 2 mps 599 mmHg 61%
    04:00 +10°C° 0 mm 2 mps 599 mmHg 66%
    05:00 +10°C° 0 mm 2 mps 600 mmHg 70%
    06:00 +10°C° 0 mm 2 mps 600 mmHg 75%
    07:00 +13°C° 0 mm 2 mps 601 mmHg 63%
    08:00 +16°C° 0 mm 2 mps 603 mmHg 52%
    09:00 +18°C° 0 mm 2 mps 604 mmHg 40%
    10:00 +20°C° 0 mm 2 mps 605 mmHg 34%
    11:00 +22°C° 0 mm 3 mps 605 mmHg 28%
    12:00 +25°C° 0 mm 3 mps 605 mmHg 23%
    13:00 +25°C° 0 mm 3 mps 605 mmHg 23%
    14:00 +25°C° 0 mm 3 mps 604 mmHg 23%
    15:00 +26°C° 0 mm 3 mps 604 mmHg 23%
    16:00 +24°C° 0 mm 3 mps 603 mmHg 27%
    17:00 +22°C° 0 mm 3 mps 603 mmHg 32%
    18:00 +20°C° 0 mm 3 mps 603 mmHg 37%
    19:00 +18°C° 0 mm 2 mps 602 mmHg 42%
    20:00 +16°C° 0 mm 2 mps 602 mmHg 48%
    21:00 +14°C° 0 mm 2 mps 602 mmHg 53%
    22:00 +14°C° 0 mm 2 mps 601 mmHg 57%
    23:00 +13°C° 0 mm 2 mps 601 mmHg 60%
    Show more